• Join FlightAware (Why Join?)
  • Login
  • US Flag 
02:59PM EDT


 

Airport Tracker/Info


-or-


 

Live Flight TrackerFlight Track Log ✈ LT912 ✈ 11-May-2013 ✈ CYPY - CYMM

Flight Track Log - Related Links

Times and Time Zones

All times are in EDT time to prevent confusion due to time zone crossing. See the LT912 flight status page for this flight to view local times or setup timezone preferences in your user account.

Time Position Orientation Groundspeed Altitude Reporting Facility
EDT Latitude Longitude Course Direction KTS MPH feet Rate Location/Type
07:06PM 58.5000 -111.1333 170° South 170 196 12,000  Level Edmonton Center
07:07PM 58.4500 -111.1333 180° South 180 207 13,600 1,500 Climbing Edmonton Center
07:08PM 58.3380 -111.1333 180° South  Level FlightAware Approximate
07:08PM 58.3833 -111.1500 187° South 190 219 15,000  Level Edmonton Center
07:09PM 58.2767 -111.1333 180° South  Level FlightAware Approximate
07:09PM 58.3333 -111.1333 170° South 200 230 16,500  Level Edmonton Center
07:10PM 58.2155 -111.1333 180° South  Level FlightAware Approximate
07:10PM 58.2833 -111.1333 180° South 210 242 17,000  Level Edmonton Center
07:11PM 58.1542 -111.1375 183° South  Level FlightAware Approximate
07:11PM 58.2000 -111.1500 186° South 250 288 17,000  Level Edmonton Center
07:12PM 58.1333 -111.1333 172° South 270 311 17,000  Level Edmonton Center
07:13PM 58.0500 -111.1167 174° South 280 322 17,000  Level Edmonton Center
07:14PM 57.9833 -111.1333 188° South 270 311 17,000  Level Edmonton Center
07:15PM 57.8833 -111.1333 180° South 270 311 17,000  Level Edmonton Center
07:16PM 57.8167 -111.1500 188° South 270 311 17,000  Level Edmonton Center
07:17PM 57.7333 -111.1333 174° South 270 311 17,000  Level Edmonton Center
07:18PM 57.6667 -111.1500 188° South 270 311 17,000  Level Edmonton Center
07:19PM 57.5833 -111.1333 174° South 280 322 17,000  Level Edmonton Center
07:20PM 57.5167 -111.1333 180° South 270 311 17,000 -300 Level Edmonton Center
07:21PM 57.4333 -111.1500 186° South 270 311 16,400 -900 Descending Edmonton Center
07:22PM 57.3667 -111.1333 172° South 290 334 15,300 -1,320 Descending Edmonton Center
07:23PM 57.2833 -111.1500 186° South 290 334 13,800 -1,500 Descending Edmonton Center
07:24PM 57.2000 -111.1333 174° South 290 334 12,300 -1,560 Descending Edmonton Center
07:25PM 57.1000 -111.1500 185° South 290 334 10,700 -1,620 Descending Edmonton Center
07:26PM 57.0167 -111.1333 174° South 280 322 9,100 -1,680 Descending Edmonton Center
07:27PM 56.9500 -111.1333 180° South 270 311 7,400 -1,560 Descending Edmonton Center
07:28PM 56.8833 -111.1500 188° South 230 265 6,000 -1,500 Descending Edmonton Center
07:29PM 56.8333 -111.1333 170° South 210 242 4,400 -1,200 Descending Edmonton Center
07:30PM 56.7667 -111.1333 180° South 200 230 3,600 -720 Descending Edmonton Center
07:31PM 56.7167 -111.1500 190° South 190 219 3,000 -360 Descending Edmonton Center
07:32PM 56.6667 -111.1333 170° South 180 207 2,900 -540 Descending Edmonton Center
07:33PM 56.6333 -111.1667 209° Southwest 160 184 2,000 -900 Descending Edmonton Center
07:34PM 56.6333 -111.2333 270° West 120 138 1,200 -420 Descending Edmonton Center
07:35PM 56.6500 -111.2667 312° West 110 127 1,200  Level Edmonton Center